Location: Writing-on-Stone Provincial Park
(49.0825°N, 111.6163°W)
Time: 12:53:48
(UTC-06:00)

Daily predictions for brighter satellites

Satellite Brightness Start Highest point End
(mag) Time Altitude Azimuth Time Altitude Azimuth Time Altitude Azimuth
CENTAUR R/B 3.6 19:28:00 10° SSE 19:32:28 21° ESE 19:37:18 10° ENE
NOAA 12 4.2 19:29:53 10° SSE 19:35:02 58° ENE 19:40:15 10° N
ERBS 3.3 19:32:30 10° NW 19:35:47 35° NNE 19:39:02 10° E
Cosmos 1346 3.6 19:33:12 10° N 19:36:01 37° ENE 19:38:49 10° SE
Cosmos 1943 Rocket 3.3 19:34:43 10° NNW 19:39:24 26° NE 19:44:01 10° E
Cosmos 1420 Rocket 4.0 19:35:20 10° NNW 19:40:40 70° ENE 19:45:58 10° SSE
Cosmos 1408 Rocket 3.5 19:36:43 10° N 19:41:06 82° ENE 19:45:25 10° SSE
Cosmos 1500 Rocket 4.3 19:38:38 10° N 19:42:39 32° ENE 19:46:40 10° SE
SKYMED 2 3.5 19:39:36 10° NNE 19:43:59 81° ESE 19:48:20 10° SSW
H-2A R/B 4.3 19:42:03 10° ESE 19:44:43 18° ENE 19:47:21 10° NNE
Cosmos 1805 3.4 19:45:33 10° S 19:49:22 52° E 19:53:13 10° NNE
Helios 1A 3.5 19:45:35 10° SE 19:49:32 40° ENE 19:53:30 10° N
FREGAT/IRIS 2.7 19:47:01 10° SSE 19:50:04 58° ENE 19:53:07 10° N
NOSS 3-2 (C) 3.5 19:44:08 10° SW 19:50:18 81° SE 19:57:08 10° NE
Cosmos 2369 Rocket 2.4 19:45:56 10° NNW 19:51:30 55° NE 19:57:04 10° SE
Cosmos 1464 Rocket 4.0 19:51:21 10° S 19:57:34 87° E 20:03:46 10° N
Cosmos 1943 4.0 19:52:59 10° SSE 19:57:39 28° ESE 20:02:21 10° NE
Cosmos 2034 Rocket 4.0 19:52:18 10° S 19:58:32 69° E 20:04:52 10° NNE
Spot 2 Rocket 3.5 19:54:20 10° SSE 19:59:17 62° ENE 20:04:17 10° N
HJ-1C 3.5 19:57:27 10° SSE 20:00:44 54° ENE 20:04:03 10° N
Cosmos 1733 4.2 20:00:07 10° SE 20:03:19 25° E 20:06:32 10° NNE
Cosmos 1048 Rocket 4.3 19:58:42 10° S 20:03:41 45° ESE 20:08:39 10° NE
Cosmos 1674 2.8 20:01:12 10° N 20:05:01 52° ENE 20:08:49 10° SSE
Cosmos 2263 4.5 20:00:07 10° NNW 20:05:48 53° NE 20:11:24 10° SE
Cosmos 1603 3.7 20:00:09 10° SSW 20:05:50 67° ESE 20:11:34 10° NNE
Cosmos 1953 2.2 20:05:34 10° S 20:09:33 88° E 20:13:33 10° N
Helios 1B rocket 2.8 20:06:21 10° NNE 20:10:16 40° E 20:14:09 10° S
Cosmos 1269 Rocket 4.0 20:06:37 10° S 20:11:48 60° ESE 20:17:01 10° NNE
Gbstr 26 Del rocket 4.2 20:08:32 10° SSW 20:12:26 30° SE 20:15:31 17° E
Cosmos 1743 Rocket 3.5 20:08:19 10° N 20:12:48 85° E 20:17:12 10° S
CZ-4B DEB 3.4 20:12:52 16° SE 20:15:08 37° ENE 20:18:11 10° N
Spot 1 4.2 20:11:22 10° SSE 20:15:57 85° WSW 20:20:18 10° NNW
Cosmos 1470 3.1 20:12:18 10° SSE 20:15:57 41° E 20:19:38 10° NNE
USA 215 4.1 20:13:01 12° ENE 20:18:03 28° SE 20:23:32 10° S
CZ-4C R/B 3.8 20:15:28 10° W 20:20:40 34° NNW 20:26:32 10° NE
Resurs 1-3 3.5 20:17:32 10° SSE 20:21:55 76° ENE 20:26:19 10° N
Cosmos 1544 3.0 20:18:52 10° S 20:22:36 86° ESE 20:26:23 10° N
Sich 1 4.5 20:22:16 10° NNE 20:25:24 19° ENE 20:25:37 19° ENE
ATLAS 5 CENTAUR R/B 2.4 20:21:11 10° SW 20:26:03 64° NW 20:31:25 10° NE
USA 186 3.1 20:27:29 18° NNE 20:27:29 18° NNE 20:28:31 10° NNE
Cosmos 2058 3.5 20:26:49 10° N 20:30:37 35° ENE 20:32:01 27° ESE
COSMO-SKYMED 1 4.3 20:27:57 10° N 20:31:56 35° WNW 20:35:53 10° SW
Resurs 01 Rocket 1.9 20:28:16 10° S 20:32:42 69° WSW 20:37:09 10° NNW
ATLAS CENTAUR R/B 4.2 20:27:22 10° SW 20:33:31 87° SE 20:54:54 10° ENE
ATLAS 3B R/B 4.4 20:28:13 10° WNW 20:34:39 30° NNW 20:40:50 10° NE
ERS-1 Rocket 3.9 20:36:04 25° E 20:37:28 29° ENE 20:41:47 10° N
Cosmos 1656 Rocket 4.5 20:34:49 10° NNW 20:39:40 32° NE 20:41:31 26° E
SL-8 R/B 3.9 20:35:27 10° SW 20:40:06 55° SSE 20:42:09 31° E
ALOS 2.2 20:38:01 10° SSE 20:42:41 86° ENE 20:47:24 10° NNW
Meteor 1-29 2.8 20:39:11 10° NNE 20:42:43 78° ESE 20:46:13 10° S
Meteor 1-16 Rocket 4.4 20:37:59 10° SSE 20:42:58 43° E 20:48:00 10° NNE
BREEZE-M DEB (TANK) 3.9 20:30:04 10° W 20:44:19 68° SSW 20:46:53 29° ESE
Cosmos 2151 2.8 20:40:40 10° N 20:44:53 72° ENE 20:47:51 19° SSE
ASTEX 1 3.2 20:42:59 10° N 20:47:56 77° E 20:52:48 10° S
GP-B 3.1 20:45:13 10° N 20:49:38 60° E 20:52:51 18° SSE
Cosmos 1110 Rocket 4.0 20:45:33 10° NNW 20:50:54 86° ENE 20:54:36 20° SSE
Cosmos-2242 4.5 20:48:48 10° SW 20:52:56 40° WNW 20:57:07 10° N
Cosmos 1437 Rocket 3.9 20:54:53 28° NE 20:54:53 28° NE 20:57:04 10° NNE
ISS -3.4 20:50:15 10° WSW 20:53:27 64° SSE 20:53:27 64° SSE
Cosmos 1805 Rocket 3.7 20:50:29 10° N 20:54:49 49° ENE 20:55:39 43° ESE
Meteor 1-11 4.2 20:50:11 10° N 20:56:01 74° ENE 21:00:18 19° SSE
H-2A R/B 3.8 20:57:26 20° NE 20:57:26 20° NE 21:00:04 10° NNE
CZ-4B DEB 4.4 20:55:54 45° SSE 20:56:55 81° ENE 21:00:32 10° NNW
Abrixas 3.0 20:54:18 10° WSW 20:56:48 50° SSW 20:56:48 50° SSW
Cosmos 2221 2.7 20:58:44 45° E 20:58:44 45° E 21:02:42 10° NNE
SPOT 5 4.3 21:00:49 19° NE 21:00:49 19° NE 21:03:06 10° NNE
Cosmos 2279 Rocket 4.1 20:54:32 10° SSE 21:00:26 49° E 21:06:23 10° NNE
FENGYUN 3A 3.9 20:56:32 10° S 21:01:53 70° WSW 21:07:19 10° NNW
SL-16 R/B 4.3 20:57:48 10° W 21:02:33 26° NW 21:07:20 10° NNE
Cosmos 1633 Rocket 3.7 21:01:39 10° N 21:05:11 37° NE 21:05:11 37° NE
CZ-2D R/B 3.8 21:08:06 22° S 21:10:24 58° W 21:14:16 10° NNW
Cosmos 1328 4.3 21:06:41 10° NNW 21:10:36 57° W 21:13:01 22° SSW
SL-14 R/B 3.2 21:07:54 10° N 21:11:59 90° ESE 21:12:44 59° S
ERBS 3.0 21:09:17 10° WNW 21:12:41 49° SW 21:12:44 49° SW
Cosmos 2266 Rocket 4.4 21:07:28 10° N 21:13:23 39° ENE 21:14:00 38° E
Cosmos 2026 Rocket 3.9 21:09:10 10° N 21:15:18 84° W 21:20:31 15° S
Cosmos 1428 Rocket 4.4 21:10:18 10° N 21:16:36 70° E 21:19:21 35° SSE
Cosmos 494 Rocket 4.0 21:11:34 10° S 21:16:43 54° ESE 21:21:39 10° NNE
Cosmos 2251 Rocket 3.4 21:11:28 10° S 21:16:39 68° ESE 21:21:53 10° NNE
H-2A R/B 3.7 21:16:35 23° SSW 21:18:43 47° W 21:22:27 10° NNW
Cosmos 1655 Rocket 4.0 21:14:07 10° N 21:20:23 85° W 21:24:52 20° S
Cosmos 1331 Rocket 4.4 21:15:43 10° NNW 21:20:59 63° WSW 21:23:44 28° S
CENTAUR R/B 2.5 21:15:53 10° SW 21:22:07 88° NW 21:29:15 10° NE
Cosmos 1943 Rocket 2.3 21:18:05 10° NNW 21:23:43 72° WSW 21:25:55 37° S
Cosmos 1634 Rocket 4.2 21:20:30 10° SSW 21:26:42 70° WNW 21:32:54 10° N
Meteor 2-20 4.3 21:23:34 10° N 21:29:46 83° E 21:31:58 43° SSE
Cosmos 1939 Rocket 3.7 21:31:11 42° N 21:31:11 42° N 21:33:57 10° N
Meteor 2-20 Rocket 4.3 21:24:38 10° N 21:30:49 69° ENE 21:32:06 54° SE
Aureole 3 3.9 21:25:01 10° N 21:31:12 77° ENE 21:31:50 67° SE
YAOGAN 11 4.1 21:32:38 68° N 21:32:38 68° N 21:36:27 10° NNW
Cosmos 1666 Rocket 3.6 21:29:49 10° N 21:34:00 78° N 21:34:00 78° N
Cosmos 2369 Rocket 4.0 21:30:27 10° NW 21:35:14 29° WSW 21:40:01 10° SSW
Cosmos 1302 Rocket 4.0 21:30:22 10° NNW 21:35:35 77° WSW 21:36:31 59° S
SJ-11-01 4.2 21:39:10 74° SW 21:39:27 78° WSW 21:44:12 10° NNW
Cosmos 1943 3.8 21:35:52 10° SW 21:41:23 56° WNW 21:46:56 10° NNE
Terra 4.2 21:46:04 12° NNE 21:46:04 12° NNE 21:46:45 10° NNE
Envisat 2.9 21:49:04 85° WSW 21:49:04 85° WSW 21:54:11 10° NNW
Gbstr 26 Del rocket 3.7 21:54:05 10° WSW 21:58:06 64° WSW 21:58:06 64° WSW
USA 215 3.1 22:00:26 62° ENE 22:01:41 83° SSE 22:08:13 10° SW
BREEZE-M DEB (TANK) 3.7 21:54:44 10° W 22:02:54 80° WNW 22:02:54 80° WNW
Sich 1 4.1 21:59:11 10° NNW 22:02:37 44° NW 22:02:37 44° NW
Lacrosse 4 Rocket 4.1 22:01:58 10° N 22:03:09 12° NNE 22:03:09 12° NNE
CZ-4C R/B 4.4 22:06:19 10° NW 22:11:08 23° N 22:14:59 15° NE
ATLAS 5 CENTAUR R/B 4.1 22:07:42 10° WNW 22:11:48 23° NNW 22:15:37 12° NNE
ERS-1 Rocket 3.8 22:16:05 45° W 22:16:05 45° W 22:20:55 10° NNW
H-2A R/B 3.8 22:20:18 23° NNE 22:20:18 23° NNE 22:22:33 10° N
Cosmos 1656 Rocket 4.3 22:18:14 10° NW 22:22:55 49° W 22:22:55 49° W
Cosmos 1697 Rocket 4.3 22:21:44 10° NNW 22:24:59 24° NNE 22:24:59 24° NNE
ATLAS 3B R/B 4.3 22:21:46 10° NW 22:27:41 26° N 22:30:12 21° NE
ARGOS 4.2 22:32:56 41° N 22:32:56 41° N 22:36:24 10° NNW
H-2A R/B 4.0 22:34:35 28° NNW 22:34:35 28° NNW 22:36:51 10° NNW
Cosmos 1980 Rocket 4.1 23:01:21 10° NNW 23:03:58 23° N 23:03:58 23° N
CENTAUR R/B 4.1 23:07:49 10° W 23:13:45 34° NNW 23:20:24 10° NE
Terra 4.5 23:24:58 16° NNW 23:24:58 16° NNW 23:25:53 10° NNW
SL-16 R/B 4.5 23:36:55 10° NNW 23:38:53 18° N 23:38:53 18° N
